EXPRESS-AM8 (40895 NORAD) Tracking and Keplerian Element Data

This shows tracking and keplerian element data for the satellite.

Feedback or suggestion? Click here.




ElementValue
Catalog40895
NameEXPRESS-AM8
Epoch Orbit3434
Epoch Day34.60922078
Epoch Year2025
RAAN265.4113
Inclination0.0086
Eccentricity5.97E-05
Argument of Perigee342.5858
Mean Anonmoly91.3226
Mean Motion1.00272199
Decay Rate-1.07E-06
L11 40895U 15048A 25034.60922078 -.00000107 00000+0 00000+0 0 9999
L22 40895 0.0086 265.4113 0000597 342.5858 91.3226 1.00272199 34348



Live tracking and technical data element details for EXPRESS-AM8 (NORAD 40895). EXPRESS-AM8 can be tracked NOW for your location showing map with azimuth and elevation plus other details from your city location.







IsCatalogInMostPopularTable: catalog: 40895, numindb: 529
Update: records affected: 1



GetName: 40895 EXPRESS-AM8

Hit Count: updated at: Thu, 22 May 2025 03:36:31 GMT